Regional Weather Roundup
Issued by NWS Boston, MA

Home | Current Version | Previous Version | Text Only | Print | Product List | Glossary On
Versions: 1 2 3 4 5 6 7 8 9 10 11 12 13 14 15 16 17 18 19 20 21 22 23 24 25 26 27 28
000
ASUS41 KBOX 201110
RWRBOX

REGIONAL WEATHER ROUNDUP
NATIONAL WEATHER SERVICE TAUNTON MA
700 AM EDT SUN APR 20 2014

NOTE:  "FAIR" INDICATES FEW OR NO CLOUDS BELOW 12,000 FEET WITH NO
SIGNIFICANT WEATHER AND/OR OBSTRUCTIONS TO VISIBILITY.  THE FOLLOWING
OBSERVATION LOCATIONS DO NOT REPORT PRESENT WEATHER...PROVINCETOWN...
SMITHFIELD...BLOCK ISLAND...KEENE...AND OXFORD.

MAZALL-201200-
EASTERN MASSACHUSETTS

CITY           SKY/WX    TMP DP  RH WIND       PRES   REMARKS
BOSTON         SUNNY     42  23  46 N8        30.50R
BEVERLY        MOSUNNY   35  26  69 NW6       30.50R WCI  30
LAWRENCE       SUNNY     35  26  69 CALM      30.52R
BEDFORD        SUNNY     30  27  88 CALM      30.49R
BLUE HILL        N/A     37  24  59 N9        30.46R WCI  30
NORWOOD        SUNNY     32  29  88 S3        30.50R
MARSHFIELD       N/A    N/A N/A N/A MISG        N/A
PLYMOUTH       SUNNY     36  27  69 CALM      30.48R
TAUNTON        SUNNY     34  29  82 CALM      30.49R
NEW BEDFORD    SUNNY     38  28  67 N5        30.47R
$$

MAZALL-201200-
CAPE COD AND THE ISLANDS

CITY           SKY/WX    TMP DP  RH WIND       PRES   REMARKS
FALMOUTH       SUNNY     37  34  87 N6        30.47R
HYANNIS        SUNNY     40  35  83 N5        30.45R
CHATHAM        SUNNY     40  33  76 CALM      30.47R
PROVINCETOWN   SUNNY     43  34  70 MISG      30.49R
NANTUCKET      SUNNY     42  34  73 NE10      30.45R
MARTHAS VNYRD  SUNNY     42  33  70 N8        30.46R
$$

MAZALL-201200-
CENTRAL AND WESTERN MASSACHUSETTS

CITY           SKY/WX    TMP DP  RH WIND       PRES   REMARKS
WORCESTER      SUNNY     38  20  48 N9        30.47R WCI  31
FITCHBURG      SUNNY     32  26  78 CALM      30.50R
ORANGE         CLEAR     29  26  89 CALM      30.50R
SPRINGFIELD    PTCLDY    30  29  99 E2        30.50R
WESTFIELD      PTCLDY    32  27  81 N5        30.50R WCI  27
NORTH ADAMS    CLEAR     27  24  89 CALM      30.50R
PITTSFIELD     CLEAR     30  26  85 CALM      30.46R
$$

RIZALL-201200-
RHODE ISLAND

CITY           SKY/WX    TMP DP  RH WIND       PRES   REMARKS
PROVIDENCE     MOSUNNY   41  25  53 N8        30.49R
NEWPORT        SUNNY     41  27  57 N7        30.47R
BLOCK ISLAND   MOSUNNY   43  30  61 NE8       30.48R
SMITHFIELD     SUNNY     37  25  60 N5        30.50R
WESTERLY       SUNNY     39  27  62 CALM      30.49R
$$

CTZALL-201200-
CONNECTICUT

CITY           SKY/WX    TMP DP  RH WIND       PRES   REMARKS
BRADLEY INTL   MOCLDY    36  26  67 NE6       30.50R WCI  31
HARTFORD       CLEAR     38  27  64 NE5       30.50R
BRIDGEPORT     PTCLDY    45  27  49 NE8       30.48R
DANBURY        PTCLDY    36  27  69 CALM      30.49R
GROTON         SUNNY     41  27  57 N6        30.49R
NEW HAVEN      MOCLDY    42  28  57 N7        30.49R
CHESTER        FAIR      41  27  56 NE3       30.48R
MERIDEN        CLEAR     37  28  70 CALM      30.49R
WILLIMANTIC    CLEAR     33  28  81 CALM      30.50R
OXFORD         CLEAR     39  21  48 NE6       30.49R
$$

MEZ002-015-021-024-NHZ003-005-008-011-012-014-VTZ005-008-201200-
NORTHERN NEW ENGLAND

CITY           SKY/WX    TMP DP  RH WIND       PRES   REMARKS
PORTLAND ME    SUNNY     37  18  46 NE9       30.49R WCI  30
BANGOR ME      MOSUNNY   34  21  59 N5        30.50R WCI  30
CONCORD NH     SUNNY     27  24  89 CALM      30.51R
MANCHESTER NH  MOSUNNY   32  26  78 CALM      30.50R
NASHUA NH      SUNNY     32  27  82 NW5       30.51R WCI  27
PORTSMOUTH NH  MOSUNNY   33  28  81 W2        30.50R
JAFFREY NH     SUNNY     26  22  84 CALM      30.48R
KEENE NH       SUNNY     27  19  74 S5        30.52R WCI  21
BURLINGTON VT  CLEAR     30  25  81 CALM      30.50R
MT. WASHINGTON MOSUNNY   19   9  63 NW15        N/A  WCI   5
$$

NYZ052-076-201200-
EASTERN NEW YORK

CITY           SKY/WX    TMP DP  RH WIND       PRES   REMARKS
ALBANY         PTCLDY    31  24  75 CALM      30.50R
NEW YORK CITY  MOCLDY    46  30  53 E12       30.47R
$$

ANZALL-201200-
MARINE OBSERVATIONS

STATION/POSITION TIME  TEMP    WIND        PRES    VSBY  WAVE
                       AIR SEA DIR/SP/G                  HT/PER
                 (UTC) (F)     (DEG/KT/KT) (MB)    (MI)  (FT/S)
BOSTON BUOY      1050   41 40  350/  8/ 10 1032.6R         2/ 9
BUZZARDS BAY     1000           30/ 13/ 14 1031.5R
NANTUCKET SOUND  1050   44 44   30/ 12/ 14 1031.1R         1/ 2
MASS BAY-STELLWA 1004   41 41  360/ 10/ 12 1030.5R   5/16  3/11
ISLE OF SHOALS   1000   40      10/ 12/ 14 1031.0R
S OF BLOCK IS    1025      41                N/A           3/ 9
$$

......................KEY.........................
  SKY/WX - SKY CONDITION/PRESENT WEATHER
  TMP    - TEMPERATURE IN FAHRENHEIT
  DWPT   - DEWPOINT IN FAHRENHEIT
  RH     - RELATIVE HUMIDITY IN PERCENT
  WIND   - DIRECTION AND SPEED IN MPH
  PRES   - MEAN SEA LEVEL PRESSURE IN INCHES OF HG
  WCI    - WIND CHILL INDEX
  VSB    - VISIBILITY IN MILES
  HX     - HEAT INDEX
  TC     - TEMPERATURE IN CELSIUS
  VRB    - VARIABLE WIND DIRECTION
  N/A    - NOT AVAILABLE



USA.gov is the U.S. government's official web portal to all federal, state and local government web resources and services.